Content
SEND FEEDBACK

Daily
Averages
Monthly
Summary
United States of America

WILMINGTON, NORTH CAROLINA


Home > North America > United States > North Carolina
Elevation: 72 feet     Latitude: 34 16N     Longitude: 077 54W

WEATHER
 
SELECT A DAY
Number of Records: 214,062;   Date Range: 1/1/95 - 12/17/14
 
SHARE

PRINT THIS DATA

[ ← Previous Day ]
WEATHER ALMANAC - MARCH 12, 2013
[ Next Day → ]
[ °C ]   °F
Weather ElementAverageHighLow
Temperature63.4 °F70 °F (3:53 pm)57 °F (11:53 pm)
Dewpoint59.8 °F62.6 °F (8:58 am)55 °F (11:53 pm)
Humidity88.4 %100 % (8:58 am)71 % (3:53 pm)
Barometer29.87 in29.96 in (1:53 am)29.78 in (4:53 pm)
Wind Speed8.1 mph16.1 mph (4:53 pm)
Wind Gust23 mph (4:53 pm)
Weather ElementAverage
Visibility7.8 mi
Wind DirectionSSW (201.6 °)

Weather ElementTotal
Precipitation1.19 in
Heating Degree Days1.5 (Base 65)
Growing Degree Days13.5 (Base 50)
Averaged from 31 records on March 12, 2013
WEATHER CONDITIONS BREAKOUT
WIND DIRECTION BREAKOUT
WEATHER BY HOUR - MARCH 12, 2013
[ °C ]   °F
Local TimeTemperatureDewpointHumidityBarometerVisibilityWind DirectionWind SpeedGust SpeedPrecipitationEventsConditions
1:53 AM63.0 °F57.0 °F81 %29.96 in9.0 miSouth (170°)8.1 mph0.00 inRainLight Rain
2:53 AM63.0 °F57.0 °F81 %29.93 in10.0 miSouth (170°)9.2 mph0.00 inOvercast
3:53 AM64.0 °F59.0 °F84 %29.91 in10.0 miSSE (150°)8.1 mph0.00 inMostly Cloudy
4:53 AM63.0 °F57.9 °F84 %29.89 in9.0 miSSE (150°)5.8 mph0.00 inRainLight Rain
5:53 AM62.1 °F57.9 °F86 %29.89 in10.0 miSSE (150°)4.6 mph0.00 inMostly Cloudy
6:53 AM61.0 °F59.0 °F93 %29.89 in10.0 miSSE (150°)4.6 mph0.02 inRainLight Rain
7:53 AM63.0 °F60.1 °F90 %29.89 in8.0 miSouth (180°)12.7 mph18.4 mph0.02 inRainLight Rain
8:53 AM64.0 °F62.1 °F93 %29.89 in4.0 miSSW (200°)5.8 mph0.08 inRainRain
8:58 AM62.6 °F62.6 °F100 %29.89 in2.5 miSSW (210°)6.9 mph0.03 inRainHeavy Rain
9:02 AM62.6 °F62.6 °F100 %29.89 in1.2 miSW (230°)4.6 mph0.04 inRainRain
9:13 AM62.6 °F62.6 °F100 %29.89 in1.5 miSouth (170°)5.8 mph0.15 inRainRain
9:17 AM62.6 °F62.6 °F100 %29.89 in2.0 miSouth (170°)5.8 mph0.16 inRainRain
9:34 AM64.4 °F62.6 °F94 %29.89 in3.0 miSouth (180°)11.5 mph0.24 inRainRain
9:53 AM64.0 °F62.1 °F93 %29.89 in4.0 miSouth (180°)9.2 mph0.29 inRainRain
10:47 AM64.4 °F60.8 °F88 %29.89 in10.0 miSouth (190°)11.5 mph0.08 inRainLight Rain
10:53 AM64.0 °F61.0 °F90 %29.88 in10.0 miSouth (190°)10.4 mph21.9 mph0.08 inOvercast
11:51 AM64.4 °F60.8 °F88 %29.89 in9.0 miSSW (200°)10.4 mph0.00 inRainLight Rain
11:53 AM64.0 °F61.0 °F90 %29.89 in9.0 miSSW (200°)9.2 mph0.00 inRainLight Rain
12:53 PM64.9 °F61.0 °F87 %29.88 in9.0 miSSW (200°)10.4 mph0.00 inRainLight Rain
1:53 PM66.0 °F61.0 °F84 %29.85 in10.0 miSSW (210°)9.2 mph0.00 inMostly Cloudy
2:53 PM66.9 °F61.0 °F81 %29.82 in10.0 miSW (220°)11.5 mphOvercast
3:53 PM70.0 °F60.1 °F71 %29.79 in10.0 miSW (230°)9.2 mphOvercast
4:53 PM68.0 °F59.0 °F73 %29.78 in10.0 miSW (220°)16.1 mph23.0 mphMostly Cloudy
5:53 PM69.1 °F60.1 °F73 %29.78 in10.0 miSW (220°)10.4 mphClear
6:53 PM66.9 °F60.1 °F79 %29.80 in10.0 miSW (220°)5.8 mphClear
7:53 PM62.1 °F59.0 °F90 %29.82 in10.0 miSSW (200°)4.6 mphClear
8:53 PM60.1 °F57.9 °F93 %29.83 in10.0 miSSW (210°)5.8 mphClear
9:53 PM59.0 °F57.0 °F93 %29.85 in8.0 miSW (230°)8.1 mphClear
10:07 PM59.0 °F57.2 °F94 %29.85 in6.0 miWSW (250°)6.9 mphPartly Cloudy
10:53 PM57.9 °F55.9 °F93 %29.87 in8.0 miWest (280°)3.5 mphClear
11:53 PM57.0 °F55.0 °F93 %29.89 in10.0 miNW (320°)5.8 mphClear
Hourly data recorded from KILM, located miles away from Wilmington, North Carolina







STORIES FROM OUR PARTNERS